Details From ULLI - Saint Petersburg Pulkovo
To EFLP - Lappeenranta
Flight Number -
Tags generated
Created
Modified
Stats Distance 98 nm / 181 km
Max Altitude 4,600 ft / 1,402 m
Waypoints 3
Social Downloads 0
Likes 0
Share VATSIM

Download

Looking for another format? Having issues loading an existing format? Contact us
Advertisement - Login to hide

Notes

Basic altitude profile: - Ascent Rate: 2500ft/min - Ascent Speed: 250kts - Cruise Altitude: 35000ft - Cruise Speed: 420kts - Descent Rate: 1500ft/min - Descent Speed: 250kts Options: - Use NATs: yes - Use PACOTS: yes - Use low airways: yes - Use high airways: yes

Route

ULLI NADAR EFLP

ID Type Via Altitude Latitude Longitude Leg Dist Tot Dist Heading (true) Name
O ULLI APT - 0 ft / 0 m 59.80029˚ 30.26250˚ - 0 nm - Saint Petersburg Pulkovo
NADAR FIX - 4,600 ft / 1,402 m 60.78306˚ 28.65917˚ 75 nm 75 nm 322° / 320° -
O EFLP APT - 0 ft / 0 m 61.04455˚ 28.14440˚ 21 nm 97 nm 316° / 316° Lappeenranta

Altitude Profile

Advertisement - Login to hide

ULLI

Details ICAO ULLI (LED)
Name Saint Petersburg Pulkovo
Region Russia
Timezone Europe/Moscow (UTC+3.0)
Stats Elevation 78 ft / 24 m (AMSL)
Location 59.800292° 30.262504°
Runways 2
Magnetic Variation 10.697° E

METAR

ULLI 170830Z 26004MPS 9999 BKN010 OVC017 M00/M02 Q1007 R88/290050 NOSIG

Decode

TAF

TAF ULLI 170801Z 1709/1809 26003MPS 5000 BR BKN011 BKN018 TEMPO 1709/1715 2100 -SN BR BKN004 OVC011 BECMG 1715/1717 3100 BR BKN006 OVC011 TEMPO 1715/1721 1000 -SN BR BKN002 OVC011 BECMG 1721/1723 1000 -SN BR OVC002 BECMG 1806/1808 3100 BR BKN007 BKN018

Decode

Departure Runways

ID Width Length Bearing (true) Bearing (mag) Surface Threshold Offset Overrun Length
10L 197 ft / 60 m 11,115 ft / 3,388 m 106.38° 95.68° Concrete 0 ft / 0 m 235 ft / 72 m
10R 197 ft / 60 m 12,365 ft / 3,769 m 106.40° 95.70° Concrete 0 ft / 0 m 220 ft / 67 m
28L 197 ft / 60 m 12,365 ft / 3,769 m 286.46° 275.76° Concrete 0 ft / 0 m 260 ft / 79 m
28R 197 ft / 60 m 11,115 ft / 3,388 m 286.44° 275.74° Concrete 0 ft / 0 m 240 ft / 73 m

EFLP

Details ICAO EFLP (LPP)
Name Lappeenranta
Region Finland
Timezone Europe/Helsinki (UTC+2.0)
Stats Elevation 349 ft / 106 m (AMSL)
Location 61.044550° 28.144400°
Runways 1
Magnetic Variation 10.408° E

METAR

EFLP 170820Z AUTO 24002KT 0250 R06/0650VP1500D R24/P1500U FZFG FEW019 OVC054 M01/M01 Q1005

Decode

TAF

Not found

Destination Runways

ID Width Length Bearing (true) Bearing (mag) Surface Threshold Offset Overrun Length
06 197 ft / 60 m 8,177 ft / 2,492 m 66.69° 56.28° Asphalt 0 ft / 0 m 210 ft / 64 m
24 197 ft / 60 m 8,177 ft / 2,492 m 246.72° 236.31° Asphalt 0 ft / 0 m 200 ft / 61 m

Approach Navaids

Runway Type Ident Frequency Range Bearing (true) Bearing (mag) Slope Elevation
06 Localiser LP 109.90 MHz 18 nm / 33 km 66.72° 56.31° - 349 ft / 106 m (AMSL)
06 Glidescope LP 109.90 MHz 10 nm / 19 km 66.70° 56.30° 3.00° 349 ft / 106 m (AMSL)

Popular Alternatives